OUR AIRPORTS

Not only does Van Anda Aviation provide a wide selection of affordable planes to rent, we also provide various locations across the Central Florida region for your accessibility. Van Anda Aviation is built for pilots, by pilots. We want to ensure pilots across Central Florida have easy access to aircraft rental, without jumping through all the red-tape. Simply go for a checkout with one of our authorized instructors, and you’re good to fly! Below are just a few airports we currently fly from.

If you want easy, accessible flying, register for an account with us today – it’s free!

KISSIMMEE GATEWAY AIRPORT

  • Runways: 06/24 and 15/33

  • Weather Summary: VFR

  • METAR: KISM 210656Z AUTO 00000KT 10SM CLR 21/19 A2999 RMK AO2 SLP154 T02110189 $

ORLANDO NORTH AIRPARK

ALBERT WHITTED AIRPORT

  • Runways: 07/25 and 18/36

  • Weather Summary: VFR

  • METAR: KSPG 210653Z AUTO 00000KT 10SM CLR 24/21 A2995 RMK AO2 SLP142 T02390206